カタログに戻る

CZ-6A DEB

運用中PO
NORAD 60901·DEBRIS·🇨🇳 China

打ち上げ Aug 6, 2024 から Taiyuan Satellite Launch Center

Loading…

次のパス (今後24時間)

TLE

最新Source: Space-Track

元期: Sep 14, 2026, 10:05 UTC

1 60901U 24140LG  26257.42081439  .00003392  00000-0  70852-3 0  9992
2 60901  88.9725 257.4017 0066805 253.9496 105.4352 14.58286900109919

AllMySatでCZ-6A DEBをリアルタイム追跡

Download on the App Store